SHISA12 ROAH-RJCC

Flight info

Callsign SHISA12
Flight time 2h 15m
Altitude 45000
Route AMAMI Y25 KANAH HKC Y45 MARCO Y141 SAMON Y14 GOLDO Y19 MRE Y13 SIRAO Y139 NAVER
Aircraft F15/H-SDE1FGHILORVWXY/LB1

Departure

Time 2026-04-30 03:50
Airport Naha International Airport (ROAH)

Arrival

Time 2026-04-30 06:06
Airport New Chitose Airport (RJCC)
Time Latitude Longitude Altitude Speed Heading
2026-04-30 03:47 26.18423 127.64903 16 ft 0 kts 257°
2026-04-30 03:48 26.18421 127.64896 15 ft 4 kts 256°
2026-04-30 03:48 26.18390 127.64850 15 ft 11 kts 182°
2026-04-30 03:48 26.18304 127.64853 14 ft 12 kts 177°
2026-04-30 03:49 26.18254 127.64821 14 ft 6 kts 227°
2026-04-30 03:49 26.18242 127.64794 14 ft 3 kts 257°
2026-04-30 03:49 26.18240 127.64755 14 ft 6 kts 272°
2026-04-30 03:49 26.18238 127.64713 13 ft 4 kts 273°
2026-04-30 03:50 26.18243 127.64661 13 ft 8 kts 304°
2026-04-30 03:50 26.18461 127.64641 14 ft 101 kts 355°
2026-04-30 03:50 26.19755 127.64560 179 ft 264 kts 353°
2026-04-30 03:50 26.21993 127.64457 2789 ft 330 kts 354°
2026-04-30 03:51 26.24457 127.64319 7378 ft 360 kts 354°
2026-04-30 03:51 26.27253 127.64828 9008 ft 479 kts 15°
2026-04-30 03:51 26.30577 127.66039 11436 ft 494 kts 15°
2026-04-30 03:51 26.33804 127.67208 12412 ft 484 kts 15°
2026-04-30 03:52 26.36982 127.68358 13131 ft 503 kts 15°
2026-04-30 03:52 26.40271 127.69545 13900 ft 466 kts 15°
2026-04-30 03:52 26.43313 127.70659 14590 ft 499 kts 14°
2026-04-30 03:52 26.46710 127.71877 16046 ft 515 kts 14°
2026-04-30 03:53 26.50164 127.73112 18876 ft 527 kts 14°
2026-04-30 03:53 26.53670 127.74382 23098 ft 532 kts 17°
2026-04-30 03:53 26.56980 127.76268 27862 ft 539 kts 32°
2026-04-30 03:53 26.59893 127.79038 32146 ft 568 kts 45°
2026-04-30 03:54 26.62424 127.82535 34620 ft 576 kts 53°
2026-04-30 03:54 26.64776 127.86223 35042 ft 600 kts 53°
2026-04-30 03:54 26.67185 127.90075 33926 ft 605 kts 54°
2026-04-30 03:54 26.69530 127.93943 32127 ft 595 kts 55°
2026-04-30 03:55 26.71766 127.97740 31875 ft 566 kts 56°
2026-04-30 03:55 26.73876 128.01407 32606 ft 550 kts 56°
2026-04-30 03:55 26.75890 128.04985 33366 ft 543 kts 57°
2026-04-30 03:55 26.77901 128.08635 34124 ft 557 kts 58°
2026-04-30 03:56 26.79920 128.12375 34815 ft 563 kts 58°
2026-04-30 03:56 26.81934 128.16183 35514 ft 573 kts 59°
2026-04-30 03:56 26.83924 128.20021 36225 ft 579 kts 59°
2026-04-30 03:56 26.85922 128.23956 36968 ft 584 kts 60°
2026-04-30 03:57 26.87916 128.27965 37736 ft 594 kts 60°
2026-04-30 03:57 26.89908 128.32052 38542 ft 600 kts 60°
2026-04-30 03:57 26.91894 128.36209 39270 ft 609 kts 61°
2026-04-30 03:57 26.93867 128.40426 39974 ft 612 kts 62°
2026-04-30 03:58 26.95821 128.44686 40740 ft 618 kts 62°
2026-04-30 03:58 26.97764 128.49012 41508 ft 624 kts 63°
2026-04-30 03:58 26.99695 128.53399 42306 ft 630 kts 63°
2026-04-30 03:58 27.01612 128.57847 43136 ft 636 kts 64°
2026-04-30 03:59 27.03516 128.62360 43997 ft 643 kts 64°
2026-04-30 03:59 27.05414 128.66948 44571 ft 653 kts 65°
2026-04-30 03:59 27.07303 128.71607 44778 ft 668 kts 65°
2026-04-30 03:59 27.09252 128.76509 44878 ft 716 kts 66°
2026-04-30 04:00 27.13236 128.86822 44941 ft 723 kts 66°
2026-04-30 04:00 27.15174 128.91994 44940 ft 708 kts 67°
2026-04-30 04:00 27.17046 128.97098 44967 ft 709 kts 68°
2026-04-30 04:01 27.20734 129.07474 44960 ft 714 kts 69°
2026-04-30 04:01 27.24282 129.17900 44956 ft 714 kts 69°
2026-04-30 04:02 27.27691 129.28382 44959 ft 715 kts 70°
2026-04-30 04:02 27.30972 129.38948 44958 ft 716 kts 71°
2026-04-30 04:03 27.34098 129.49513 44957 ft 715 kts 72°
2026-04-30 04:03 27.37103 129.60190 44951 ft 714 kts 73°
2026-04-30 04:04 27.39949 129.70857 45739 ft 718 kts 73°
2026-04-30 04:04 27.41341 129.76300 46456 ft 727 kts 74°
2026-04-30 04:04 27.42710 129.81803 47157 ft 732 kts 75°
2026-04-30 04:05 27.44056 129.87363 47863 ft 740 kts 75°
2026-04-30 04:05 27.45381 129.92999 48576 ft 749 kts 71°
2026-04-30 04:05 27.46694 129.98720 49245 ft 758 kts 76°
2026-04-30 04:05 27.47986 130.04510 49596 ft 764 kts 76°
2026-04-30 04:06 27.49232 130.10255 49794 ft 768 kts 76°
2026-04-30 04:06 27.50467 130.16123 49879 ft 770 kts 77°
2026-04-30 04:06 27.52833 130.27892 49930 ft 771 kts 77°
2026-04-30 04:07 27.55055 130.39694 49960 ft 769 kts 78°
2026-04-30 04:08 27.58125 130.57485 49968 ft 773 kts 79°
2026-04-30 04:08 27.59995 130.69404 49964 ft 772 kts 80°
2026-04-30 04:09 27.61723 130.81355 49963 ft 771 kts 81°
2026-04-30 04:09 27.63305 130.93328 49954 ft 770 kts 82°
2026-04-30 04:10 27.64733 131.05237 49975 ft 773 kts 83°
2026-04-30 04:10 27.66477 131.17168 49980 ft 773 kts 69°
2026-04-30 04:10 27.68610 131.22717 49990 ft 769 kts 57°
2026-04-30 04:11 27.71570 131.27714 49971 ft 765 kts 53°
2026-04-30 04:11 27.77993 131.37292 49978 ft 763 kts 40°
2026-04-30 04:12 27.86438 131.44344 49960 ft 753 kts 28°
2026-04-30 04:12 27.95330 131.50451 49963 ft 754 kts 27°
2026-04-30 04:13 28.04351 131.56447 49950 ft 752 kts 27°
2026-04-30 04:13 28.13398 131.62426 49962 ft 750 kts 26°
2026-04-30 04:14 28.22443 131.68409 49951 ft 751 kts 26°
2026-04-30 04:14 28.31456 131.74386 49969 ft 749 kts 26°
2026-04-30 04:15 28.40465 131.80389 49949 ft 753 kts 26°
2026-04-30 04:15 28.49410 131.86365 49957 ft 749 kts 26°
2026-04-30 04:16 28.58412 131.92391 49946 ft 749 kts 26°
2026-04-30 04:16 28.67415 131.98432 49956 ft 752 kts 26°
2026-04-30 04:17 28.76398 132.04478 49945 ft 751 kts 26°
2026-04-30 04:17 28.85396 132.10537 49946 ft 750 kts 26°
2026-04-30 04:18 28.94392 132.16595 49948 ft 750 kts 26°
2026-04-30 04:18 29.03388 132.22658 49941 ft 751 kts 26°
2026-04-30 04:19 29.12385 132.28728 49938 ft 752 kts 26°
2026-04-30 04:19 29.21384 132.34815 49942 ft 752 kts 26°
2026-04-30 04:20 29.30338 132.40886 49938 ft 751 kts 26°
2026-04-30 04:20 29.39331 132.46997 49933 ft 752 kts 26°
2026-04-30 04:21 29.46870 132.52125 49935 ft 751 kts 26°
2026-04-30 04:21 29.55832 132.58230 49931 ft 752 kts 26°
2026-04-30 04:22 29.64848 132.64382 49949 ft 754 kts 26°
2026-04-30 04:22 29.73883 132.70572 49932 ft 755 kts 26°
2026-04-30 04:23 29.82921 132.76780 49934 ft 757 kts 26°
2026-04-30 04:23 29.91985 132.83028 49923 ft 757 kts 26°
2026-04-30 04:24 30.01062 132.89300 49939 ft 764 kts 26°
2026-04-30 04:24 30.10101 132.95571 49912 ft 762 kts 26°
2026-04-30 04:25 30.19215 133.01905 49916 ft 766 kts 26°
2026-04-30 04:25 30.28335 133.08204 49905 ft 764 kts 26°
2026-04-30 04:26 30.37503 133.14504 49918 ft 766 kts 26°
2026-04-30 04:26 30.46652 133.20797 49916 ft 765 kts 26°
2026-04-30 04:27 30.55809 133.27100 49909 ft 762 kts 26°
2026-04-30 04:27 30.64970 133.33409 49916 ft 766 kts 26°
2026-04-30 04:28 30.74148 133.39748 49910 ft 765 kts 26°
2026-04-30 04:28 30.83327 133.46094 49911 ft 766 kts 26°
2026-04-30 04:29 30.92432 133.52394 49910 ft 767 kts 26°
2026-04-30 04:29 31.01635 133.58762 49913 ft 768 kts 26°
2026-04-30 04:30 31.10825 133.65127 49921 ft 766 kts 26°
2026-04-30 04:30 31.20013 133.71505 49922 ft 767 kts 26°
2026-04-30 04:31 31.29157 133.77861 49942 ft 773 kts 26°
2026-04-30 04:31 31.38390 133.84289 49938 ft 771 kts 26°
2026-04-30 04:32 31.47644 133.90754 49945 ft 774 kts 26°
2026-04-30 04:32 31.56888 133.97227 49978 ft 775 kts 26°
2026-04-30 04:33 31.66174 134.03732 49951 ft 775 kts 26°
2026-04-30 04:33 31.75432 134.10229 49987 ft 777 kts 26°
2026-04-30 04:34 31.84698 134.16738 49975 ft 775 kts 26°
2026-04-30 04:34 31.93423 134.24155 50006 ft 791 kts 44°
2026-04-30 04:35 32.00391 134.34266 49996 ft 795 kts 50°
2026-04-30 04:35 32.06910 134.44836 49989 ft 795 kts 51°
2026-04-30 04:36 32.13332 134.55466 50028 ft 799 kts 51°
2026-04-30 04:36 32.19703 134.66063 50005 ft 796 kts 51°
2026-04-30 04:37 32.26109 134.76745 50043 ft 798 kts 51°
2026-04-30 04:37 32.32520 134.87435 50035 ft 797 kts 51°
2026-04-30 04:38 32.38933 134.98129 50040 ft 796 kts 51°
2026-04-30 04:38 32.45337 135.08849 50047 ft 798 kts 51°
2026-04-30 04:39 32.51728 135.19592 50043 ft 798 kts 51°
2026-04-30 04:39 32.58116 135.30341 50051 ft 796 kts 51°
2026-04-30 04:40 32.64510 135.41102 50065 ft 799 kts 51°
2026-04-30 04:40 32.70922 135.51889 50073 ft 799 kts 51°
2026-04-30 04:41 32.77302 135.62619 50080 ft 800 kts 51°
2026-04-30 04:41 32.83731 135.73451 50074 ft 801 kts 51°
2026-04-30 04:42 32.90158 135.84298 50082 ft 802 kts 51°
2026-04-30 04:42 32.96570 135.95148 50082 ft 801 kts 51°
2026-04-30 04:43 33.02988 136.06023 50085 ft 801 kts 51°
2026-04-30 04:43 33.09361 136.16830 50084 ft 802 kts 51°
2026-04-30 04:44 33.15784 136.27731 50096 ft 801 kts 51°
2026-04-30 04:44 33.22204 136.38633 50108 ft 802 kts 51°
2026-04-30 04:45 33.28633 136.49563 50102 ft 802 kts 51°
2026-04-30 04:45 33.35013 136.60418 50117 ft 804 kts 51°
2026-04-30 04:46 33.41436 136.71362 50109 ft 803 kts 51°
2026-04-30 04:46 33.47872 136.82343 50132 ft 807 kts 51°
2026-04-30 04:47 33.54310 136.93355 50117 ft 805 kts 51°
2026-04-30 04:47 33.60737 137.04369 50119 ft 805 kts 51°
2026-04-30 04:48 33.67158 137.15408 50119 ft 806 kts 51°
2026-04-30 04:48 33.73534 137.26382 50120 ft 806 kts 51°
2026-04-30 04:49 33.79955 137.37440 50122 ft 805 kts 51°
2026-04-30 04:49 33.86363 137.48489 50135 ft 805 kts 51°
2026-04-30 04:50 33.92777 137.59564 50136 ft 805 kts 51°
2026-04-30 04:50 33.99170 137.70630 50135 ft 804 kts 51°
2026-04-30 04:51 34.05558 137.81702 50166 ft 804 kts 51°
2026-04-30 04:51 34.11940 137.92791 50153 ft 804 kts 51°
2026-04-30 04:52 34.18312 138.03880 50196 ft 805 kts 51°
2026-04-30 04:52 34.24658 138.14947 50170 ft 805 kts 51°
2026-04-30 04:53 34.31037 138.26087 50179 ft 807 kts 51°
2026-04-30 04:53 34.37425 138.37246 50182 ft 806 kts 51°
2026-04-30 04:54 34.43812 138.48407 50196 ft 807 kts 51°
2026-04-30 04:54 34.50206 138.59590 50190 ft 806 kts 51°
2026-04-30 04:55 34.56600 138.70778 50192 ft 806 kts 51°
2026-04-30 04:55 34.62989 138.81966 50207 ft 807 kts 51°
2026-04-30 04:56 34.69339 138.93092 50216 ft 803 kts 51°
2026-04-30 04:56 34.75717 139.04275 50219 ft 804 kts 51°
2026-04-30 04:57 34.82100 139.15470 50221 ft 805 kts 51°
2026-04-30 04:57 34.88470 139.26661 50243 ft 804 kts 51°
2026-04-30 04:58 34.94845 139.37904 50224 ft 804 kts 51°
2026-04-30 04:58 35.01201 139.49138 50229 ft 805 kts 51°
2026-04-30 04:59 35.07544 139.60366 50241 ft 804 kts 51°
2026-04-30 04:59 35.13889 139.71616 50222 ft 804 kts 51°
2026-04-30 05:00 35.20229 139.82881 50226 ft 806 kts 51°
2026-04-30 05:00 35.26530 139.94103 50226 ft 804 kts 51°
2026-04-30 05:01 35.32892 140.05453 50233 ft 806 kts 51°
2026-04-30 05:01 35.39232 140.16793 50222 ft 807 kts 51°
2026-04-30 05:02 35.45546 140.28095 50222 ft 807 kts 51°
2026-04-30 05:02 35.51895 140.39472 50214 ft 806 kts 51°
2026-04-30 05:03 35.58244 140.50871 50226 ft 808 kts 51°
2026-04-30 05:03 35.64567 140.62263 50218 ft 807 kts 51°
2026-04-30 05:04 35.70880 140.73664 50229 ft 805 kts 51°
2026-04-30 05:04 35.77188 140.85082 50223 ft 805 kts 51°
2026-04-30 05:05 35.83459 140.96454 50221 ft 806 kts 51°
2026-04-30 05:05 35.89756 141.07891 50225 ft 806 kts 51°
2026-04-30 05:06 35.98134 141.23140 50234 ft 805 kts 51°
2026-04-30 05:06 36.04421 141.34610 50255 ft 806 kts 51°
2026-04-30 05:07 36.10698 141.46093 50232 ft 805 kts 51°
2026-04-30 05:07 36.16978 141.57601 50232 ft 806 kts 51°
2026-04-30 05:08 36.23212 141.69040 50253 ft 807 kts 51°
2026-04-30 05:08 36.29488 141.80585 50239 ft 806 kts 51°
2026-04-30 05:09 36.35755 141.92127 50236 ft 804 kts 49°
2026-04-30 05:09 36.39334 141.97372 50259 ft 790 kts 36°
2026-04-30 05:09 36.43602 142.01536 50258 ft 773 kts 23°
2026-04-30 05:10 36.48296 142.04423 50254 ft 751 kts 10°
2026-04-30 05:10 36.53283 142.05986 50272 ft 730 kts 359°
2026-04-30 05:10 36.58304 142.06536 50237 ft 719 kts 354°
2026-04-30 05:10 36.63290 142.06731 49988 ft 717 kts 353°
2026-04-30 05:11 36.68271 142.06787 49233 ft 712 kts 352°
2026-04-30 05:11 36.73186 142.06786 48478 ft 700 kts 352°
2026-04-30 05:11 36.78026 142.06768 47751 ft 688 kts 351°
2026-04-30 05:11 36.82781 142.06753 46995 ft 678 kts 351°
2026-04-30 05:12 36.87463 142.06746 46243 ft 667 kts 351°
2026-04-30 05:12 36.92079 142.06748 45483 ft 657 kts 351°
2026-04-30 05:12 36.96614 142.06761 44721 ft 647 kts 351°
2026-04-30 05:12 37.01045 142.06795 43844 ft 639 kts 351°
2026-04-30 05:13 37.05477 142.06857 42994 ft 633 kts 351°
2026-04-30 05:13 37.09868 142.06950 42181 ft 629 kts 351°
2026-04-30 05:13 37.14222 142.07075 41448 ft 625 kts 351°
2026-04-30 05:13 37.18574 142.07247 40683 ft 622 kts 351°
2026-04-30 05:14 37.22892 142.07459 39939 ft 619 kts 351°
2026-04-30 05:14 37.27179 142.07710 39243 ft 616 kts 351°
2026-04-30 05:14 37.31448 142.07997 38480 ft 612 kts 351°
2026-04-30 05:14 37.35693 142.08301 37702 ft 607 kts 351°
2026-04-30 05:15 37.39883 142.08605 36923 ft 600 kts 351°
2026-04-30 05:15 37.44026 142.08896 36172 ft 593 kts 351°
2026-04-30 05:15 37.48117 142.09166 35686 ft 584 kts 351°
2026-04-30 05:15 37.52167 142.09421 35470 ft 581 kts 351°
2026-04-30 05:16 37.60202 142.09909 35316 ft 581 kts 351°
2026-04-30 05:16 37.68292 142.10387 35267 ft 582 kts 351°
2026-04-30 05:17 37.76403 142.10862 35272 ft 583 kts 351°
2026-04-30 05:17 37.84511 142.11350 35264 ft 583 kts 351°
2026-04-30 05:18 37.92626 142.11836 35266 ft 583 kts 351°
2026-04-30 05:18 38.00669 142.12327 35255 ft 582 kts 351°
2026-04-30 05:19 38.08793 142.12818 35249 ft 583 kts 351°
2026-04-30 05:19 38.16890 142.13320 35264 ft 581 kts 351°
2026-04-30 05:20 38.24984 142.13831 35255 ft 582 kts 351°
2026-04-30 05:20 38.33095 142.14326 34701 ft 583 kts 351°
2026-04-30 05:21 38.37127 142.14557 34471 ft 576 kts 351°
2026-04-30 05:21 38.41117 142.14777 34363 ft 574 kts 351°
2026-04-30 05:21 38.49081 142.15203 34282 ft 571 kts 351°
2026-04-30 05:22 38.57041 142.15621 34258 ft 572 kts 351°
2026-04-30 05:22 38.64947 142.16031 34248 ft 572 kts 351°
2026-04-30 05:23 38.72903 142.16451 34262 ft 572 kts 351°
2026-04-30 05:23 38.80867 142.16876 34250 ft 572 kts 351°
2026-04-30 05:24 38.84865 142.17397 34260 ft 593 kts
2026-04-30 05:24 38.88833 142.19238 34272 ft 621 kts 17°
2026-04-30 05:24 38.96588 142.24246 33520 ft 618 kts 15°
2026-04-30 05:25 39.00501 142.25995 32772 ft 576 kts
2026-04-30 05:25 39.04359 142.26906 32013 ft 553 kts 357°
2026-04-30 05:25 39.08022 142.27552 31280 ft 522 kts 356°
2026-04-30 05:25 39.11517 142.28102 30600 ft 494 kts 355°
2026-04-30 05:26 39.14800 142.28578 29823 ft 471 kts 355°
2026-04-30 05:26 39.17996 142.29004 29008 ft 453 kts 355°
2026-04-30 05:26 39.21061 142.29372 28574 ft 443 kts 355°
2026-04-30 05:26 39.24119 142.29703 28396 ft 440 kts 355°
2026-04-30 05:27 39.30215 142.30298 28277 ft 439 kts 354°
2026-04-30 05:27 39.36357 142.30849 28239 ft 444 kts 354°
2026-04-30 05:28 39.42422 142.31384 28220 ft 435 kts 354°
2026-04-30 05:28 39.45333 142.31668 28033 ft 408 kts 354°
2026-04-30 05:28 39.48146 142.31937 27230 ft 403 kts 355°
2026-04-30 05:29 39.50923 142.32231 26478 ft 398 kts 356°
2026-04-30 05:29 39.53713 142.32482 25751 ft 405 kts 356°
2026-04-30 05:29 39.56506 142.32654 25056 ft 398 kts 355°
2026-04-30 05:29 39.59245 142.32754 24352 ft 391 kts 355°
2026-04-30 05:30 39.61957 142.32783 23648 ft 386 kts 355°
2026-04-30 05:30 39.64628 142.32757 22830 ft 381 kts 355°
2026-04-30 05:30 39.67265 142.32703 22031 ft 376 kts 354°
2026-04-30 05:30 39.69866 142.32629 21257 ft 370 kts 354°
2026-04-30 05:31 39.72423 142.32544 20690 ft 364 kts 354°
2026-04-30 05:31 39.74908 142.32452 20431 ft 362 kts 354°
2026-04-30 05:31 39.77430 142.32351 20312 ft 362 kts 354°
2026-04-30 05:31 39.79951 142.32245 20254 ft 362 kts 354°
2026-04-30 05:32 39.82475 142.32137 20225 ft 363 kts 354°
2026-04-30 05:32 39.84994 142.32035 20213 ft 361 kts 354°
2026-04-30 05:32 39.87509 142.31935 20205 ft 362 kts 354°
2026-04-30 05:32 39.90034 142.31834 20193 ft 363 kts 354°
2026-04-30 05:33 39.92566 142.31733 20187 ft 364 kts 354°
2026-04-30 05:33 39.95098 142.31633 20185 ft 364 kts 354°
2026-04-30 05:33 39.97926 142.31493 20204 ft 470 kts 354°
2026-04-30 05:33 40.01425 142.31264 20220 ft 512 kts 354°
2026-04-30 05:34 40.04937 142.31030 20203 ft 510 kts 354°
2026-04-30 05:34 40.08469 142.30795 20178 ft 512 kts 354°
2026-04-30 05:34 40.12034 142.30558 20170 ft 513 kts 354°
2026-04-30 05:34 40.15855 142.30286 20174 ft 608 kts 354°
2026-04-30 05:35 40.20182 142.29950 20176 ft 624 kts 354°
2026-04-30 05:35 40.24516 142.29616 20174 ft 625 kts 354°
2026-04-30 05:35 40.28876 142.29279 20174 ft 629 kts 354°
2026-04-30 05:35 40.33243 142.28943 20174 ft 628 kts 354°
2026-04-30 05:36 40.37618 142.28608 19907 ft 629 kts 354°
2026-04-30 05:36 40.41957 142.28276 19186 ft 621 kts 354°
2026-04-30 05:36 40.46211 142.27946 18492 ft 617 kts 354°
2026-04-30 05:36 40.50474 142.27607 17694 ft 610 kts 354°
2026-04-30 05:37 40.54620 142.27271 16914 ft 562 kts 354°
2026-04-30 05:37 40.58288 142.26985 16145 ft 496 kts 354°
2026-04-30 05:37 40.61558 142.26739 15617 ft 445 kts 354°
2026-04-30 05:37 40.64487 142.26532 15396 ft 399 kts 354°
2026-04-30 05:38 40.67127 142.26360 15286 ft 360 kts 354°
2026-04-30 05:38 40.69514 142.26219 15235 ft 328 kts 354°
2026-04-30 05:38 40.71693 142.26104 15210 ft 300 kts 354°
2026-04-30 05:38 40.73752 142.26004 15203 ft 296 kts 354°
2026-04-30 05:39 40.75816 142.25903 15203 ft 296 kts 354°
2026-04-30 05:39 40.77890 142.25801 14803 ft 300 kts 354°
2026-04-30 05:39 40.79943 142.25697 14482 ft 291 kts 354°
2026-04-30 05:39 40.81899 142.25283 14286 ft 288 kts 340°
2026-04-30 05:40 40.83776 142.24430 14140 ft 283 kts 336°
2026-04-30 05:40 40.85602 142.23455 14067 ft 283 kts 335°
2026-04-30 05:40 40.87414 142.22428 14044 ft 283 kts 334°
2026-04-30 05:40 40.89237 142.21439 14022 ft 283 kts 337°
2026-04-30 05:41 40.91084 142.20544 14014 ft 284 kts 338°
2026-04-30 05:41 40.92957 142.19669 14008 ft 284 kts 338°
2026-04-30 05:41 40.94818 142.18815 14020 ft 279 kts 339°
2026-04-30 05:41 40.96658 142.17977 14012 ft 281 kts 339°
2026-04-30 05:42 40.98450 142.17166 13993 ft 261 kts 339°
2026-04-30 05:42 41.00156 142.16402 13997 ft 259 kts 339°
2026-04-30 05:42 41.01878 142.15629 13614 ft 264 kts 339°
2026-04-30 05:42 41.03599 142.14862 13270 ft 256 kts 339°
2026-04-30 05:43 41.05282 142.14123 13120 ft 255 kts 339°
2026-04-30 05:43 41.06955 142.13396 13060 ft 257 kts 339°
2026-04-30 05:43 41.08651 142.12660 13030 ft 255 kts 339°
2026-04-30 05:43 41.10343 142.11923 13019 ft 257 kts 339°
2026-04-30 05:44 41.12039 142.11184 13012 ft 257 kts 339°
2026-04-30 05:44 41.13771 142.10596 13003 ft 258 kts 345°
2026-04-30 05:44 41.15545 142.10176 13001 ft 259 kts 347°
2026-04-30 05:44 41.17328 142.09819 13000 ft 259 kts 348°
2026-04-30 05:45 41.19113 142.09490 12999 ft 259 kts 348°
2026-04-30 05:45 41.20902 142.09173 12998 ft 259 kts 348°
2026-04-30 05:45 41.22693 142.08862 12997 ft 260 kts 349°
2026-04-30 05:45 41.24488 142.08552 12995 ft 261 kts 349°
2026-04-30 05:46 41.26295 142.08236 12996 ft 262 kts 349°
2026-04-30 05:46 41.28151 142.07907 12950 ft 289 kts 349°
2026-04-30 05:46 41.30158 142.07542 12240 ft 289 kts 348°
2026-04-30 05:46 41.32132 142.07191 11759 ft 282 kts 349°
2026-04-30 05:47 41.34499 142.06739 11660 ft 424 kts 349°
2026-04-30 05:47 41.37917 142.06009 11666 ft 557 kts 349°
2026-04-30 05:47 41.41754 142.05172 11645 ft 557 kts 349°
2026-04-30 05:47 41.45590 142.04333 11594 ft 557 kts 349°
2026-04-30 05:48 41.49420 142.03489 11539 ft 559 kts 349°
2026-04-30 05:48 41.53261 142.02638 11511 ft 559 kts 348°
2026-04-30 05:48 41.57106 142.01784 11497 ft 560 kts 349°
2026-04-30 05:48 41.60907 142.00937 11495 ft 560 kts 348°
2026-04-30 05:49 41.64721 142.00091 11490 ft 530 kts 349°
2026-04-30 05:49 41.68096 141.99356 10905 ft 459 kts 348°
2026-04-30 05:49 41.71076 141.98725 10410 ft 408 kts 348°
2026-04-30 05:49 41.73731 141.98180 10182 ft 364 kts 348°
2026-04-30 05:50 41.76105 141.97715 10080 ft 327 kts 348°
2026-04-30 05:50 41.78257 141.97309 10029 ft 297 kts 348°
2026-04-30 05:50 41.80217 141.96954 10007 ft 274 kts 348°
2026-04-30 05:50 41.82059 141.96629 9997 ft 266 kts 348°
2026-04-30 05:51 41.83903 141.96300 9996 ft 268 kts 349°
2026-04-30 05:51 41.85751 141.95952 9998 ft 268 kts 349°
2026-04-30 05:51 41.87597 141.95597 9993 ft 267 kts 348°
2026-04-30 05:51 41.89437 141.95239 9994 ft 264 kts 348°
2026-04-30 05:52 41.91207 141.94899 9987 ft 255 kts 348°
2026-04-30 05:52 41.92947 141.94589 9986 ft 255 kts 348°
2026-04-30 05:52 41.94688 141.94124 9871 ft 256 kts 342°
2026-04-30 05:52 41.96394 141.93501 9644 ft 252 kts 340°
2026-04-30 05:53 41.98070 141.92826 9549 ft 251 kts 339°
2026-04-30 05:53 41.99738 141.92126 9509 ft 251 kts 339°
2026-04-30 05:53 42.00838 141.91655 9495 ft 250 kts 339°
2026-04-30 05:53 42.02497 141.90937 9486 ft 251 kts 339°
2026-04-30 05:54 42.04152 141.90206 9474 ft 251 kts 339°
2026-04-30 05:54 42.05782 141.89368 9480 ft 250 kts 333°
2026-04-30 05:54 42.07360 141.88369 9396 ft 251 kts 331°
2026-04-30 05:54 42.08918 141.87306 9150 ft 248 kts 330°
2026-04-30 05:55 42.10445 141.86240 9051 ft 248 kts 333°
2026-04-30 05:55 42.12079 141.85468 9006 ft 249 kts 340°
2026-04-30 05:55 42.13710 141.84693 8986 ft 248 kts 335°
2026-04-30 05:55 42.15305 141.83792 8972 ft 248 kts 334°
2026-04-30 05:56 42.16884 141.82845 8962 ft 248 kts 333°
2026-04-30 05:56 42.18452 141.81879 8960 ft 247 kts 333°
2026-04-30 05:56 42.20014 141.80904 8960 ft 248 kts 333°
2026-04-30 05:56 42.21560 141.79928 8964 ft 248 kts 333°
2026-04-30 05:57 42.23115 141.78937 8960 ft 246 kts 333°
2026-04-30 05:57 42.24668 141.77941 8959 ft 247 kts 332°
2026-04-30 05:57 42.26233 141.76933 8715 ft 249 kts 332°
2026-04-30 05:57 42.27781 141.75934 8574 ft 245 kts 332°
2026-04-30 05:58 42.29321 141.74938 8515 ft 246 kts 332°
2026-04-30 05:58 42.30864 141.73937 8485 ft 246 kts 332°
2026-04-30 05:58 42.32408 141.72935 8473 ft 246 kts 332°
2026-04-30 05:58 42.33949 141.71932 8474 ft 245 kts 332°
2026-04-30 05:59 42.35496 141.70990 8463 ft 245 kts 340°
2026-04-30 05:59 42.37161 141.70383 8463 ft 248 kts 345°
2026-04-30 05:59 42.38862 141.70039 8432 ft 250 kts 355°
2026-04-30 05:59 42.40627 141.70037 7927 ft 252 kts 356°
2026-04-30 06:00 42.42354 141.69973 7696 ft 247 kts
2026-04-30 06:00 42.44066 141.70359 7593 ft 250 kts
2026-04-30 06:00 42.45757 141.70601 7477 ft 248 kts 358°
2026-04-30 06:00 42.47511 141.70551 7204 ft 246 kts 354°
2026-04-30 06:01 42.49192 141.70409 7087 ft 246 kts 353°
2026-04-30 06:01 42.50906 141.70227 6969 ft 245 kts 353°
2026-04-30 06:01 42.52570 141.70034 6858 ft 239 kts 353°
2026-04-30 06:01 42.54236 141.69859 6811 ft 239 kts 355°
2026-04-30 06:02 42.55923 141.69790 6349 ft 247 kts 356°
2026-04-30 06:02 42.57673 141.69681 5663 ft 255 kts 353°
2026-04-30 06:02 42.59432 141.69476 5296 ft 249 kts 353°
2026-04-30 06:02 42.61129 141.69292 5014 ft 238 kts 353°
2026-04-30 06:03 42.62728 141.69159 4883 ft 223 kts 353°
2026-04-30 06:03 42.64293 141.69023 4836 ft 229 kts 353°
2026-04-30 06:03 42.65846 141.68884 4792 ft 225 kts 353°
2026-04-30 06:03 42.67418 141.68733 4099 ft 222 kts 353°
2026-04-30 06:04 42.68859 141.68608 3294 ft 195 kts 353°
2026-04-30 06:04 42.70237 141.68613 2499 ft 207 kts 358°
2026-04-30 06:04 42.71669 141.68731 1938 ft 202 kts 352°
2026-04-30 06:05 42.74301 141.68028 1000 ft 198 kts 337°
2026-04-30 06:05 42.75665 141.67518 519 ft 207 kts 354°
2026-04-30 06:05 42.77066 141.67268 196 ft 197 kts 352°
2026-04-30 06:05 42.78366 141.67042 66 ft 174 kts 352°
2026-04-30 06:06 42.79356 141.66880 78 ft 121 kts 353°
2026-04-30 06:06 42.79966 141.66773 75 ft 58 kts 352°
2026-04-30 06:06 42.80190 141.66664 72 ft 25 kts 282°
2026-04-30 06:06 42.80173 141.66486 74 ft 15 kts 263°
2026-04-30 06:07 42.80162 141.66371 72 ft 10 kts 263°
2026-04-30 06:07 42.80154 141.66293 76 ft 9 kts 262°
2026-04-30 06:07 42.80145 141.66184 74 ft 14 kts 263°
2026-04-30 06:07 42.80167 141.66063 74 ft 7 kts 356°
2026-04-30 06:08 42.80258 141.66050 73 ft 22 kts 352°
2026-04-30 06:08 42.80432 141.66021 74 ft 25 kts 354°
2026-04-30 06:08 42.80589 141.65989 74 ft 21 kts 353°
2026-04-30 06:08 42.80700 141.65949 72 ft 13 kts 296°
2026-04-30 06:09 42.80715 141.65855 76 ft 5 kts 263°
2026-04-30 06:09 42.80716 141.65840 76 ft 1 kts 352°
2026-04-30 06:09 42.80718 141.65839 76 ft 0 kts